Regional Weather Roundup
Issued by NWS

Home | Current Version | Previous Version | Graphics & Text | Print | Product List | Glossary On
Versions: 1 2 3 4 5 6 7 8 9 10 11 12 13 14 15 16 17 18 19 20 21 22 23 24 25 26 27 28 29 30 31 32 33 34 35 36 37 38 39 40 41 42 43 44 45 46 47 48 49 50
000
ASUS43 KFSD 241410
RWRSD

WEATHER ROUNDUP FOR SOUTH DAKOTA
NATIONAL WEATHER SERVICE SIOUX FALLS SD
900 AM CDT SAT SEP 24 2016

NOTE: "FAIR" INDICATES FEW OR NO CLOUDS BELOW 12,000 FEET WITH NO
SIGNIFICANT WEATHER AND/OR OBSTRUCTIONS TO VISIBILITY.


SDZ001>005-009-010-012>017-241500-
NORTHWEST AND NORTH CENTRAL SOUTH DAKOTA

CITY           SKY/WX    TMP DP  RH WIND       PRES   REMARKS
BUFFALO          N/A     56  56 100 NE17      29.65R
FAITH            N/A     60  60 100 S14       29.73R
MOBRIDGE       SUNNY     70  62  76 S14       29.72S
$$

SDZ012>016-024>037-041>051-057-063-072>074-241500-
SOUTHWEST AND SOUTH CENTRAL SOUTH DAKOTA

CITY           SKY/WX    TMP DP  RH WIND       PRES   REMARKS
RAPID CTY ARPT CLOUDY    55  44  66 W8        29.78R
PIERRE         LGT RAIN  60  54  80 SW15      29.78R
CUSTER         CLOUDY    42  40  92 W14G25    29.86R FOG
ELLSWORTH AFB  CLOUDY    54  47  78 W8        29.76F
PHILIP         MOSUNNY   55  50  83 SW12      29.78R
PINE RIDGE     SUNNY     51  43  74 SW14      29.88R
WINNER         CLOUDY    63  51  65 W14       29.85R
$$

SDZ004>011-016>023-039-040-241500-
NORTHEAST SOUTH DAKOTA

CITY           SKY/WX    TMP DP  RH WIND       PRES   REMARKS
ABERDEEN       MOSUNNY   73  64  73 SE21      29.80S
WATERTOWN      CLOUDY    71  65  81 SE15G29   29.89F
BROOKINGS      CLOUDY    69  65  86 SE20      29.92S
SISSETON         N/A     69  66  90 S16G25    29.88F
$$

SDZ017-020-022-023-036>040-048>070-241500-
SOUTHEAST SOUTH DAKOTA

CITY           SKY/WX    TMP DP  RH WIND       PRES   REMARKS
SIOUX FALLS    PTSUNNY   71  66  84 SE20      29.92F
HURON          MOSUNNY   72  64  76 SE15G26   29.83R
CHAMBERLAIN    CLOUDY    67  58  72 SW13G23   29.82R
MITCHELL       CLOUDY    71  64  78 SE16G26   29.83S
YANKTON        CLOUDY    72  64  78 SE9       29.87S
$$

ABBREVIATIONS USED IN REMARKS
   TC - TEMPERATURE IN CELSIUS
  WCI - WIND CHILL INDEX
   HX - HEAT INDEX
  VSB - VISIBILITY




USA.gov is the U.S. government's official web portal to all federal, state and local government web resources and services.